Tracking 20241 objects as of 25-Jan-2020
HD Live streaming from Space Station
objects crossing your sky now

H-2A R/B

Track H-2A R/B now!
10-day predictions


NORAD ID: 43067
Int'l Code: 2017-082C
Perigee: 467.2 km
Apogee: 638.7 km
Inclination: 98.3 °
Period: 95.6 minutes
Semi major axis: 6923 km
RCS: Unknown
Launch date: December 23, 2017
Source: Japan (JPN)
Launch site: TANEGASHIMA SPACE CENTER (TNSTA)

Note: This is a ROCKET BODY
aabbcc
Your satellite tracking list
Your tracking list is empty




NASA's NSSDC Master Catalog

Two Line Element Set (TLE):
1 43067U 17082C   20024.86103154  .00000321  00000-0  22986-4 0  9991
2 43067  98.3462 169.1417 0123839  83.6033 277.9278 15.06844323114826
Source of the keplerian elements: AFSPC